Theta_e
277 277 277 277 278 278 278 278 278 278 277 277 276 276 276 276 276 276 277 277 278 280 281 280 281 283 284 284 286 286 285 286 283 287 287 286 286 286 287 287 287 288 288
276 276 276 276 276 276 276 276 277 277 277 276 276 275 274 274 275 275 275 275 276 277 279 279 280 281 283 284 285 285 285 286 285 283 285 284 285 285 285 284 284 285 285
275 275 275 274 274 274 275 275 276 276 276 276 275 274 274 274 274 275 275 275 276 277 279 279 280 281 281 283 284 284 284 284 285 283 282 283 283 284 282 282 282 282 283
274 274 273 273 273 273 274 274 274 274 274 274 274 274 273 273 273 273 275 276 277 278 280 282 282 281 281 283 283 283 283 282 282 282 281 281 281 281 281 280 279 281 281
272 271 271 272 272 273 272 272 273 273 274 274 273 272 272 272 273 273 275 275 276 277 278 281 282 282 283 284 283 282 282 281 280 280 279 279 279 279 278 280 279 280 281
267 269 269 270 271 270 270 270 269 269 270 271 270 270 270 271 273 275 276 275 276 276 277 280 281 282 283 284 285 285 283 281 280 280 279 278 278 279 280 279 279 277 276
266 267 268 268 268 268 267 266 266 267 268 267 268 269 269 270 273 275 275 275 275 276 278 280 280 283 283 283 283 284 285 284 283 281 279 279 279 280 280 279 278 278 277
265 266 266 266 264 264 264 263 263 265 265 265 266 267 268 269 273 274 275 275 276 277 278 280 280 282 282 281 281 281 281 282 283 283 282 282 282 282 281 281 280 278 278
265 265 265 264 262 262 262 262 263 263 264 264 266 266 265 266 271 274 275 275 275 277 279 280 280 281 282 284 280 278 278 279 282 283 283 284 283 283 282 280 277 276 275
264 265 264 263 262 261 261 262 263 263 264 264 264 264 265 267 271 273 274 275 275 275 276 279 280 280 281 282 280 278 276 277 278 279 280 282 281 281 282 281 279 276 275
266 264 263 262 261 261 262 262 262 261 261 262 263 265 266 268 269 273 275 275 275 275 277 277 279 281 281 282 282 279 278 278 279 278 278 278 278 277 278 277 278 279 276
263 262 261 261 262 262 261 261 261 261 261 261 262 263 266 268 270 272 275 276 277 275 275 277 278 281 281 281 282 282 282 281 278 277 276 275 275 275 276 275 274 273 275
260 259 259 260 261 261 260 260 260 260 260 261 262 264 265 267 268 272 273 275 276 275 277 278 279 281 283 282 283 283 278 277 275 274 273 272 273 273 271 272 271 268 269
258 258 259 259 259 259 260 260 259 260 260 261 263 263 265 266 267 269 273 273 275 275 274 274 277 280 280 280 280 277 276 275 274 273 273 273 272 272 271 269 270 269 269
258 258 258 259 258 258 259 259 260 261 263 263 264 265 264 264 267 273 273 273 273 273 269 271 271 272 275 275 273 273 274 274 272 271 271 270 270 270 269 268 267 266 266
257 257 257 257 257 257 257 257 262 264 266 267 268 268 268 270 272 273 274 273 273 272 265 266 267 268 268 269 270 270 270 270 269 269 268 268 268 268 267 266 266 264 264
256 257 256 256 256 256 256 256 255 258 263 265 266 267 269 269 271 272 272 271 270 266 261 261 262 264 265 266 265 266 266 265 264 265 265 264 265 264 264 264 264 264 263
255 255 255 256 256 256 256 255 255 255 255 257 262 265 267 268 269 270 270 266 261 262 260 260 260 261 262 262 263 262 262 262 262 262 262 262 261 261 262 262 263 261 262
255 255 255 256 255 255 255 255 256 256 256 257 258 262 263 266 267 266 266 261 260 259 260 259 259 259 259 259 259 259 258 259 259 259 259 258 259 259 260 260 260 258 259
254 255 256 255 254 255 255 255 255 255 256 257 257 258 259 262 258 258 259 259 259 259 259 259 257 256 256 256 256 256 257 257 258 258 258 258 258 257 258 258 258 259 260
255 255 255 254 254 254 254 254 255 255 256 256 257 259 265 261 259 258 257 257 258 258 258 258 257 256 255 254 254 255 255 257 256 256 256 257 256 256 257 258 258 258 259
256 255 255 254 254 253 253 254 255 255 256 256 257 258 263 259 259 259 259 257 256 256 257 257 257 256 255 255 255 255 254 255 255 255 255 254 255 256 255 256 257 258 259
255 255 255 254 253 253 253 254 254 255 256 256 257 257 258 258 258 258 259 259 259 256 256 254 254 254 255 254 254 254 255 255 256 256 255 255 255 256 256 256 257 257 259
256 255 253 253 252 252 252 253 254 255 256 256 256 257 257 257 257 258 259 259 259 259 256 255 255 254 255 254 254 254 254 255 255 255 255 256 256 256 256 257 258 258 260
254 253 252 252 251 251 252 253 254 255 255 256 256 256 257 257 257 258 258 259 259 258 258 257 255 255 254 254 254 254 254 257 257 255 256 257 257 257 258 259 260 261 261
253 252 252 252 252 253 253 254 254 255 255 255 256 256 256 256 257 257 258 258 258 259 258 258 257 255 255 256 255 256 256 259 257 255 256 258 259 260 260 260 261 261 262
Wind_Speed
12 12 12 12 13 13 13 14 14 15 14 15 15 16 16 16 16 15 16 17 17 16 16 15 18 17 12 10 9 9 9 8 10 3 2 2 7 9 7 4 4 5 4
11 12 13 13 14 14 14 15 15 15 15 15 15 16 16 16 16 16 17 17 16 17 17 17 17 13 15 13 10 12 9 10 9 12 6 4 4 4 6 7 5 4 4
12 12 13 14 14 15 15 15 16 16 16 16 16 16 16 17 17 16 16 17 17 18 18 19 18 16 15 12 12 9 8 6 6 3 2 2 3 2 3 4 3 3 3
12 13 14 14 15 15 15 16 17 17 16 17 15 16 17 17 18 18 16 16 18 18 19 17 16 15 16 15 9 9 7 5 4 3 2 2 2 3 2 2 3 3 3
12 12 13 15 15 15 16 16 17 19 17 15 17 17 17 16 13 16 16 17 18 18 19 17 16 16 23 19 7 9 8 6 5 4 4 3 4 3 4 4 4 3 2
10 12 12 14 14 15 16 17 20 19 18 18 18 18 18 13 25 28 24 16 17 18 19 15 14 16 16 20 18 17 12 9 9 6 6 6 7 6 5 5 4 3 2
10 10 13 13 15 14 17 19 17 18 18 18 17 17 16 16 27 28 29 15 16 17 18 14 13 11 10 6 5 3 9 16 13 8 8 7 8 8 6 6 5 4 3
10 12 12 12 14 17 17 17 17 16 16 16 16 17 14 15 28 29 27 16 14 17 17 13 12 7 6 7 7 5 5 4 4 3 8 7 7 7 8 6 5 3 2
13 14 11 15 17 17 17 18 17 16 16 16 16 16 18 15 27 26 23 14 14 13 13 11 9 7 4 8 5 4 4 4 2 7 8 9 8 9 7 5 5 4 2
15 13 16 15 16 17 17 17 15 16 15 15 18 15 18 15 24 27 23 11 9 9 13 9 14 7 7 7 6 7 6 5 4 2 2 4 3 3 4 7 5 5 3
15 16 16 16 16 16 16 15 15 16 14 14 15 15 15 14 14 26 25 13 9 9 9 8 6 12 9 10 10 7 7 5 7 4 3 2 2 2 2 2 1 3 5
15 16 16 16 13 13 16 14 15 14 15 14 14 13 11 12 19 22 26 25 21 11 9 8 9 15 8 7 4 12 12 10 5 5 5 3 2 1 1 1 1 2 3
15 15 15 15 14 14 15 14 12 12 11 12 12 11 12 11 12 25 26 22 20 13 9 13 21 15 9 7 8 8 10 6 6 4 3 2 1 1 1 1 0 1 2
14 15 13 13 14 13 10 10 10 10 11 12 11 11 10 11 11 12 10 10 15 12 12 9 13 9 10 6 7 9 6 5 4 4 3 3 2 1 1 1 0 2 2
13 12 12 11 12 12 11 10 11 12 14 13 11 10 10 10 12 21 17 9 9 14 9 6 9 8 5 6 6 7 5 5 4 2 3 2 1 1 1 1 1 1 2
12 10 10 11 10 10 11 11 17 22 24 24 23 18 10 20 24 23 24 20 20 20 5 5 7 7 7 7 6 5 5 5 4 2 2 1 1 2 1 1 2 2 4
11 12 10 10 10 11 11 11 14 15 21 21 22 23 23 22 23 24 23 21 18 12 4 6 6 7 6 6 5 5 3 4 2 2 1 1 1 2 2 3 3 3 5
10 12 9 9 9 10 10 11 10 11 14 13 17 21 21 24 24 24 22 14 8 7 4 5 5 5 5 5 5 4 4 4 2 2 2 2 2 2 2 4 4 4 6
9 8 9 9 9 11 10 10 10 11 11 11 12 14 14 23 18 20 19 6 6 6 5 5 5 5 5 4 4 3 3 3 2 2 2 2 3 2 3 4 5 6 7
8 12 11 9 9 9 9 10 10 10 11 10 10 10 12 12 7 7 7 7 6 6 6 6 5 5 4 4 4 4 4 3 3 3 3 3 4 3 4 5 5 6 7
8 9 11 8 8 9 9 10 10 10 10 11 11 11 25 11 9 8 6 6 6 6 6 5 5 5 4 4 4 4 4 5 4 4 4 4 4 4 4 4 6 6 7
8 9 9 9 9 9 9 10 10 11 11 11 12 12 24 9 8 8 8 6 6 6 6 5 5 5 5 4 4 5 5 5 5 5 5 4 4 5 4 5 5 6 7
9 10 10 9 9 11 9 9 10 10 11 11 11 11 10 9 9 9 9 8 7 6 5 4 5 6 5 5 4 5 5 6 6 4 4 5 4 5 4 5 6 6 6
8 10 10 9 8 9 9 11 10 13 12 11 11 10 10 10 10 11 10 9 8 8 5 5 5 7 7 6 5 5 5 6 5 6 7 6 6 5 5 6 6 8 8
8 9 9 9 9 9 10 11 11 11 11 11 11 10 11 11 10 10 10 9 9 8 8 7 5 7 9 10 9 9 8 11 9 7 5 7 8 8 8 7 8 8 10
8 9 8 8 8 9 10 11 11 11 11 11 11 10 11 11 11 11 10 10 9 9 11 8 8 10 10 9 10 11 10 11 9 10 7 7 8 7 7 9 11 8 10
Wind_Direction
320 315 310 309 309 305 302 302 299 299 298 298 301 304 304 303 302 299 293 294 293 293 290 290 289 288 279 277 258 254 254 247 257 228 204 147 166 142 144 134 157 170 178
315 312 313 314 315 311 308 308 304 299 297 295 300 301 304 302 301 298 297 297 293 293 291 287 283 288 284 277 262 255 244 243 245 248 172 157 152 162 161 155 163 176 190
314 316 318 317 316 313 310 311 309 302 300 295 299 301 303 304 304 299 293 292 289 285 286 283 276 278 281 274 252 244 244 233 222 196 152 104 101 150 149 116 160 198 208
317 319 318 319 318 314 312 314 313 307 302 299 298 299 300 302 301 296 291 294 294 292 292 286 274 266 271 272 238 237 231 220 206 200 146 120 119 110 99 166 190 194 179
317 316 315 318 316 313 316 315 316 311 302 302 304 300 300 299 298 301 298 295 293 299 298 287 288 266 267 255 225 218 204 202 188 182 176 165 168 172 198 181 186 164 222
307 312 311 318 316 316 315 319 316 308 308 302 302 301 301 300 305 304 300 299 299 297 294 294 295 273 259 246 223 218 195 185 187 180 179 195 206 209 195 186 173 174 199
307 305 314 315 314 322 317 312 310 312 311 305 302 303 302 300 304 307 307 299 292 293 293 291 299 280 215 205 216 209 218 200 194 190 199 203 199 200 181 181 186 194 200
309 310 318 320 319 316 314 312 313 310 308 306 304 299 309 307 310 309 306 298 294 290 291 285 299 288 184 186 193 196 204 209 197 188 197 199 197 182 174 190 199 177 181
317 325 325 323 319 315 316 316 312 311 309 305 303 325 309 304 310 315 311 305 293 299 310 293 296 315 309 211 163 189 211 226 236 199 179 178 193 198 193 157 173 178 185
330 327 324 319 317 315 316 314 317 308 322 324 308 309 301 303 306 317 316 302 321 314 308 294 300 282 265 240 180 183 203 203 191 182 112 172 83 70 83 176 167 184 189
327 323 321 319 317 316 314 321 314 326 317 316 313 311 308 308 307 317 320 318 319 302 324 324 316 295 271 239 206 185 201 174 191 168 145 123 80 78 112 126 158 199 211
326 321 321 319 320 320 321 323 326 324 323 319 320 317 315 319 317 322 323 323 328 332 321 312 306 305 239 232 232 192 199 173 153 140 136 124 125 129 305 342 5 265 270
323 320 320 321 322 323 327 325 323 324 322 317 317 315 327 324 318 319 321 318 336 330 319 322 326 314 239 219 208 166 101 101 107 113 124 130 144 96 10 331 26 16 260
320 320 321 326 323 324 322 322 317 319 315 309 319 322 326 325 322 314 322 331 325 325 350 343 338 332 10 130 87 93 97 106 111 112 119 124 128 146 113 65 5 15 322
321 320 324 323 323 319 321 318 320 314 313 327 319 323 321 321 309 322 329 330 12 0 355 358 6 8 24 51 67 74 77 81 91 101 125 134 121 92 348 8 349 5 260
322 326 323 323 320 319 319 318 318 322 327 327 328 329 324 325 329 332 331 8 352 5 360 5 9 9 22 24 32 47 57 58 59 82 97 126 199 222 243 235 234 247 278
320 319 320 319 318 320 323 322 322 322 323 327 330 334 334 336 336 329 349 12 358 20 18 6 5 3 4 13 17 17 23 34 19 39 37 352 286 267 250 274 285 287 293
313 313 309 312 313 315 315 314 311 315 320 323 328 329 334 336 333 351 341 7 357 12 14 0 351 351 351 353 356 2 353 358 6 14 344 333 302 273 277 268 277 285 292
315 312 311 310 308 309 306 307 306 308 307 308 315 320 327 324 338 351 353 346 340 344 347 345 342 336 333 331 332 335 328 316 312 311 296 292 284 266 273 272 277 272 280
307 300 310 309 309 311 312 311 309 309 310 308 313 317 317 309 350 342 337 334 331 326 329 325 322 316 312 308 308 309 303 296 293 281 277 276 274 262 268 268 269 278 275
306 305 308 302 307 311 309 307 307 306 306 309 307 313 320 343 325 314 305 307 307 309 309 302 296 292 290 292 292 291 283 287 284 280 280 279 282 287 279 274 276 269 271
311 307 306 305 309 309 307 304 303 304 305 308 309 312 322 321 313 311 308 293 277 265 276 278 282 277 273 268 268 268 263 266 270 265 272 268 272 269 268 272 273 271 271
305 306 311 308 306 305 305 304 303 304 307 309 310 313 316 314 312 311 307 305 302 277 268 251 260 277 273 256 240 238 246 252 250 236 253 261 263 267 261 268 266 268 266
311 313 309 306 307 306 303 307 305 306 309 310 312 311 312 310 309 307 305 304 300 296 276 266 261 261 272 271 259 243 237 251 248 246 235 249 256 253 254 255 256 259 263
315 309 307 304 306 306 306 306 307 309 310 311 312 312 310 309 308 305 305 303 300 296 290 280 259 262 266 266 266 262 249 254 244 221 222 231 244 248 251 254 259 264 264
309 305 303 303 303 306 308 308 309 311 311 312 311 309 309 308 306 305 304 302 300 300 298 290 279 269 270 270 263 260 253 250 239 231 223 230 238 243 243 248 255 259 266